Time,TemperatureF,DewpointF,PressureIn,WindDirection,WindDirectionDegrees,WindSpeedMPH,WindSpeedGustMPH,Humidity,HourlyPrecipIn,Conditions,Clouds,dailyrainin,SoftwareType,DateUTC
2013-07-11 00:13:00,80.6,74.0,29.77,West,277,0.0,3.0,80,0.00,,,0.00,weatherlink.com 1.10,2013-07-11 04:13:00,
2013-07-11 00:28:00,80.4,74.0,29.76,West,276,0.0,0.0,81,0.00,,,0.00,weatherlink.com 1.10,2013-07-11 04:28:00,
2013-07-11 00:43:00,80.1,74.0,29.76,West,276,0.0,1.0,82,0.00,,,0.00,weatherlink.com 1.10,2013-07-11 04:43:00,
2013-07-11 00:58:00,79.8,74.0,29.76,West,276,0.0,1.0,82,0.00,,,0.00,weatherlink.com 1.10,2013-07-11 04:58:00,
2013-07-11 01:13:00,79.6,74.0,29.76,West,276,0.0,1.0,83,0.00,,,0.00,weatherlink.com 1.10,2013-07-11 05:13:00,
2013-07-11 01:28:00,79.5,74.0,29.76,West,276,0.0,0.0,83,0.00,,,0.00,weatherlink.com 1.10,2013-07-11 05:28:00,
2013-07-11 01:43:00,79.2,74.0,29.76,WNW,286,0.0,2.0,84,0.00,,,0.00,weatherlink.com 1.10,2013-07-11 05:43:00,
2013-07-11 01:58:00,78.9,74.0,29.76,WNW,285,0.0,0.0,85,0.00,,,0.00,weatherlink.com 1.10,2013-07-11 05:58:00,
2013-07-11 02:13:00,78.6,74.0,29.76,WNW,285,0.0,1.0,86,0.00,,,0.00,weatherlink.com 1.10,2013-07-11 06:13:00,
2013-07-11 02:28:00,78.5,74.0,29.76,WNW,285,0.0,0.0,86,0.00,,,0.00,weatherlink.com 1.10,2013-07-11 06:28:00,
2013-07-11 02:43:00,78.4,74.0,29.76,West,279,0.0,1.0,87,0.00,,,0.00,weatherlink.com 1.10,2013-07-11 06:43:00,
2013-07-11 02:58:00,78.5,74.0,29.76,SSW,211,0.0,3.0,87,0.00,,,0.00,weatherlink.com 1.10,2013-07-11 06:58:00,
2013-07-11 03:13:00,78.5,74.0,29.76,SSW,202,0.0,0.0,87,0.00,,,0.00,weatherlink.com 1.10,2013-07-11 07:13:00,
2013-07-11 03:28:00,78.5,74.0,29.76,SSW,202,0.0,0.0,87,0.00,,,0.00,weatherlink.com 1.10,2013-07-11 07:28:00,
2013-07-11 03:43:00,78.4,75.0,29.75,SSW,202,0.0,1.0,88,0.00,,,0.00,weatherlink.com 1.10,2013-07-11 07:43:00,
2013-07-11 03:58:00,78.4,75.0,29.75,SW,220,0.0,1.0,88,0.00,,,0.00,weatherlink.com 1.10,2013-07-11 07:58:00,
2013-07-11 04:13:00,78.3,74.0,29.75,SSE,149,0.0,1.0,87,0.00,,,0.00,weatherlink.com 1.10,2013-07-11 08:13:00,
2013-07-11 04:28:00,78.3,74.0,29.75,East,88,0.0,2.0,87,0.00,,,0.00,weatherlink.com 1.10,2013-07-11 08:28:00,
2013-07-11 04:43:00,78.2,73.0,29.75,East,90,0.0,1.0,85,0.00,,,0.00,weatherlink.com 1.10,2013-07-11 08:43:00,
2013-07-11 04:58:00,78.2,73.0,29.75,East,101,0.0,2.0,85,0.00,,,0.00,weatherlink.com 1.10,2013-07-11 08:58:00,
2013-07-11 05:13:00,78.1,73.0,29.76,East,101,0.0,0.0,85,0.00,,,0.00,weatherlink.com 1.10,2013-07-11 09:13:00,
2013-07-11 05:28:00,77.9,73.0,29.75,ESE,117,0.0,1.0,85,0.00,,,0.00,weatherlink.com 1.10,2013-07-11 09:28:00,
2013-07-11 05:43:00,77.7,73.0,29.76,ESE,117,0.0,0.0,85,0.00,,,0.00,weatherlink.com 1.10,2013-07-11 09:43:00,
2013-07-11 05:58:00,77.6,73.0,29.77,West,271,0.0,2.0,85,0.00,,,0.00,weatherlink.com 1.10,2013-07-11 09:58:00,
2013-07-11 06:13:00,77.5,73.0,29.77,West,271,0.0,0.0,85,0.00,,,0.00,weatherlink.com 1.10,2013-07-11 10:13:00,
2013-07-11 06:28:00,77.5,72.0,29.78,WNW,290,0.0,1.0,84,0.00,,,0.00,weatherlink.com 1.10,2013-07-11 10:28:00,
2013-07-11 06:43:00,77.6,73.0,29.78,West,281,0.0,1.0,84,0.00,,,0.00,weatherlink.com 1.10,2013-07-11 10:43:00,
2013-07-11 06:58:00,77.5,72.0,29.79,SW,228,0.0,2.0,84,0.00,,,0.00,weatherlink.com 1.10,2013-07-11 10:58:00,
2013-07-11 07:13:00,77.5,72.0,29.79,West,261,0.0,2.0,84,0.00,,,0.00,weatherlink.com 1.10,2013-07-11 11:13:00,
2013-07-11 07:28:00,77.6,73.0,29.79,West,273,0.0,2.0,84,0.00,,,0.00,weatherlink.com 1.10,2013-07-11 11:28:00,
2013-07-11 07:43:00,77.7,73.0,29.79,WNW,285,3.0,4.0,84,0.00,,,0.00,weatherlink.com 1.10,2013-07-11 11:43:00,
2013-07-11 07:59:00,77.7,73.0,29.80,WNW,290,0.0,3.0,84,0.00,,,0.00,weatherlink.com 1.10,2013-07-11 11:59:00,
2013-07-11 08:14:00,77.9,73.0,29.80,WNW,289,0.0,1.0,84,0.00,,,0.00,weatherlink.com 1.10,2013-07-11 12:14:00,
2013-07-11 08:29:00,78.0,73.0,29.80,ESE,118,0.0,2.0,84,0.00,,,0.00,weatherlink.com 1.10,2013-07-11 12:29:00,
2013-07-11 08:44:00,78.1,73.0,29.81,West,281,0.0,2.0,83,0.00,,,0.00,weatherlink.com 1.10,2013-07-11 12:44:00,
2013-07-11 08:59:00,77.8,73.0,29.81,WNW,293,0.0,3.0,84,0.00,,,0.00,weatherlink.com 1.10,2013-07-11 12:59:00,
2013-07-11 09:14:00,77.8,73.0,29.81,WNW,286,0.0,3.0,85,0.00,,,0.00,weatherlink.com 1.10,2013-07-11 13:14:00,
2013-07-11 09:29:00,77.8,73.0,29.81,West,259,0.0,3.0,84,0.00,,,0.00,weatherlink.com 1.10,2013-07-11 13:29:00,
2013-07-11 09:59:00,77.7,73.0,29.82,West,271,0.0,3.0,85,0.00,,,0.00,weatherlink.com 1.10,2013-07-11 13:59:00,
2013-07-11 10:14:00,77.9,73.0,29.82,West,278,0.0,4.0,85,0.00,,,0.00,weatherlink.com 1.10,2013-07-11 14:14:00,
2013-07-11 10:29:00,78.2,74.0,29.82,West,277,0.0,2.0,86,0.00,,,0.00,weatherlink.com 1.10,2013-07-11 14:29:00,
2013-07-11 10:44:00,78.3,73.0,29.82,West,278,0.0,3.0,83,0.00,,,0.00,weatherlink.com 1.10,2013-07-11 14:44:00,
2013-07-11 10:59:00,78.5,72.0,29.82,WNW,286,2.0,2.0,80,0.00,,,0.00,weatherlink.com 1.10,2013-07-11 14:59:00,
2013-07-11 11:14:00,78.4,72.0,29.82,WNW,288,0.0,4.0,80,0.00,,,0.00,weatherlink.com 1.10,2013-07-11 15:14:00,
2013-07-11 11:29:00,79.0,71.0,29.82,West,280,0.0,2.0,77,0.00,,,0.00,weatherlink.com 1.10,2013-07-11 15:29:00,
2013-07-11 11:44:00,79.4,70.0,29.81,West,264,0.0,4.0,73,0.00,,,0.00,weatherlink.com 1.10,2013-07-11 15:44:00,
2013-07-11 11:59:00,79.6,70.0,29.81,South,182,2.0,4.0,72,0.00,,,0.00,weatherlink.com 1.10,2013-07-11 15:59:00,
2013-07-11 12:14:00,80.0,70.0,29.82,West,275,1.0,4.0,71,0.00,,,0.00,weatherlink.com 1.10,2013-07-11 16:14:00,
2013-07-11 12:29:00,80.2,70.0,29.82,SW,230,0.0,3.0,71,0.00,,,0.00,weatherlink.com 1.10,2013-07-11 16:29:00,
2013-07-11 12:44:00,80.5,70.0,29.82,West,281,0.0,3.0,71,0.00,,,0.00,weatherlink.com 1.10,2013-07-11 16:44:00,
2013-07-11 12:59:00,81.2,71.0,29.82,North,355,1.0,3.0,72,0.00,,,0.00,weatherlink.com 1.10,2013-07-11 16:59:00,
2013-07-11 13:14:00,81.4,70.0,29.82,NW,319,0.0,4.0,69,0.00,,,0.00,weatherlink.com 1.10,2013-07-11 17:14:00,
2013-07-11 13:44:00,82.3,71.0,29.81,WNW,283,0.0,4.0,68,0.00,,,0.00,weatherlink.com 1.10,2013-07-11 17:44:00,
2013-07-11 14:14:00,83.7,72.0,29.80,NNW,329,0.0,3.0,67,0.00,,,0.00,weatherlink.com 1.10,2013-07-11 18:14:00,
2013-07-11 14:29:00,84.0,71.0,29.80,WNW,283,0.0,3.0,65,0.00,,,0.00,weatherlink.com 1.10,2013-07-11 18:29:00,
2013-07-11 14:59:00,84.7,72.0,29.80,North,360,0.0,4.0,65,0.00,,,0.00,weatherlink.com 1.10,2013-07-11 18:59:00,
2013-07-11 15:14:00,85.2,70.0,29.80,WSW,240,0.0,2.0,60,0.00,,,0.00,weatherlink.com 1.10,2013-07-11 19:14:00,
2013-07-11 15:29:00,85.5,70.0,29.80,WNW,290,0.0,3.0,61,0.00,,,0.00,weatherlink.com 1.10,2013-07-11 19:29:00,
2013-07-11 15:44:00,85.8,72.0,29.79,WNW,284,0.0,2.0,63,0.00,,,0.00,weatherlink.com 1.10,2013-07-11 19:44:00,
2013-07-11 15:59:00,85.7,71.0,29.79,WNW,287,0.0,6.0,62,0.00,,,0.00,weatherlink.com 1.10,2013-07-11 19:59:00,
2013-07-11 16:14:00,86.0,70.0,29.79,North,355,1.0,4.0,60,0.00,,,0.00,weatherlink.com 1.10,2013-07-11 20:14:00,
2013-07-11 16:29:00,85.7,72.0,29.79,NW,309,0.0,3.0,63,0.00,,,0.00,weatherlink.com 1.10,2013-07-11 20:29:00,
2013-07-11 16:44:00,86.2,71.0,29.79,ENE,71,0.0,2.0,61,0.00,,,0.00,weatherlink.com 1.10,2013-07-11 20:44:00,
2013-07-11 16:59:00,86.1,71.0,29.79,NW,317,0.0,2.0,61,0.00,,,0.00,weatherlink.com 1.10,2013-07-11 20:59:00,
2013-07-11 17:14:00,86.1,71.0,29.79,NNE,32,1.0,3.0,61,0.00,,,0.00,weatherlink.com 1.10,2013-07-11 21:14:00,
2013-07-11 17:44:00,86.0,70.0,29.80,WNW,290,4.0,7.0,59,0.00,,,0.00,weatherlink.com 1.10,2013-07-11 21:44:00,
2013-07-11 17:59:00,85.7,70.0,29.80,West,279,0.0,6.0,60,0.00,,,0.00,weatherlink.com 1.10,2013-07-11 21:59:00,
2013-07-11 18:44:00,85.8,70.0,29.81,West,271,1.0,5.0,59,0.00,,,0.00,weatherlink.com 1.10,2013-07-11 22:44:00,
2013-07-11 18:59:00,85.2,70.0,29.82,NW,309,2.0,2.0,60,0.00,,,0.00,weatherlink.com 1.10,2013-07-11 22:59:00,
2013-07-11 19:29:00,83.7,70.0,29.82,NNE,31,0.0,0.0,63,0.00,,,0.00,weatherlink.com 1.10,2013-07-11 23:29:00,
2013-07-11 19:59:00,81.8,70.0,29.83,NNE,31,0.0,0.0,67,0.00,,,0.00,weatherlink.com 1.10,2013-07-11 23:59:00,
2013-07-11 20:14:00,80.7,69.0,29.83,NNE,31,1.0,1.0,67,0.00,,,0.00,weatherlink.com 1.10,2013-07-12 00:14:00,
2013-07-11 20:29:00,79.9,68.0,29.83,NNE,30,0.0,1.0,68,0.00,,,0.00,weatherlink.com 1.10,2013-07-12 00:29:00,
2013-07-11 20:44:00,79.1,69.0,29.84,NNE,31,0.0,0.0,71,0.00,,,0.00,weatherlink.com 1.10,2013-07-12 00:44:00,
2013-07-11 21:15:00,77.5,68.0,29.85,NNE,30,0.0,0.0,73,0.00,,,0.00,weatherlink.com 1.10,2013-07-12 01:15:00,
2013-07-11 21:30:00,76.8,67.0,29.85,NNE,30,0.0,0.0,72,0.00,,,0.00,weatherlink.com 1.10,2013-07-12 01:30:00,
2013-07-11 22:30:00,76.1,66.0,29.86,NNE,15,0.0,2.0,70,0.00,,,0.00,weatherlink.com 1.10,2013-07-12 02:30:00,
2013-07-11 22:45:00,75.9,66.0,29.86,NNE,15,0.0,0.0,71,0.00,,,0.00,weatherlink.com 1.10,2013-07-12 02:45:00,
2013-07-11 23:15:00,75.3,66.0,29.86,NNE,15,0.0,0.0,73,0.00,,,0.00,weatherlink.com 1.10,2013-07-12 03:15:00,
2013-07-11 23:30:00,75.0,66.0,29.87,NNE,15,0.0,0.0,73,0.00,,,0.00,weatherlink.com 1.10,2013-07-12 03:30:00,
2013-07-11 23:45:00,74.8,66.0,29.86,NNE,15,0.0,0.0,75,0.00,,,0.00,weatherlink.com 1.10,2013-07-12 03:45:00,